Date String (YYYY-MM-DD hh:mm:ss) UTC,Instrument flags,Ambient pressure (hPa),Sample flow (lpm),Bypass flow (lpm),Sample temperature (°C),Ambient temperature (°C),ASC tube jacket temperature (°C),LED temperature (°C),Box temperature (°C),Sample RH (%),Span deviation,Mass concentration (μg/m³),Mass concentration (μg/m³),Mass concentration (μg/m³)
DateTimeUTC,F1_M11,P_M11,Q1_M11,Q2_M11,T1_M11,T2_M11,T3_M11,T4_M11,T5_M11,U1_M11,ZSPAN_M11,X0_M11,X2_M11,X1_M11
2021-12-14 18:00:00,,0820.1,5.00,0.00,24.6,23.9,00.0,33.4,26.4,08.2,0000.7,0021.43,0007.59,0005.77
2021-12-14 18:01:00,,0820.1,5.01,0.00,24.6,23.9,00.0,33.4,26.5,08.2,0000.7,0021.22,0007.63,0005.77
2021-12-14 18:02:00,,0820.1,4.99,0.00,24.6,24.0,00.0,33.4,26.5,08.2,-000.3,0021.84,0007.67,0005.78
2021-12-14 18:03:00,,0820.1,5.01,0.00,24.6,24.0,00.0,33.4,26.5,08.2,0000.2,0022.77,0007.73,0005.77
2021-12-14 18:04:00,,0820.1,5.00,0.00,24.7,24.0,00.0,33.5,26.5,08.1,0000.2,0023.70,0007.73,0005.76
2021-12-14 18:05:00,,0820.0,4.99,0.00,24.7,24.0,00.0,33.5,26.6,08.0,0001.0,0023.86,0007.64,0005.74
2021-12-14 18:06:00,,0820.0,4.99,0.00,24.7,24.1,00.0,33.5,26.6,08.5,0000.9,0023.97,0007.64,0005.74
2021-12-14 18:07:00,,0820.0,5.01,0.00,24.8,24.1,00.0,33.5,26.6,08.4,0000.0,0023.96,0007.71,0005.75
2021-12-14 18:08:00,,0820.0,4.98,0.00,24.8,24.1,00.0,33.6,26.6,08.3,-000.5,0023.48,0007.75,0005.76
2021-12-14 18:09:00,,0819.9,5.01,0.00,24.8,24.1,00.0,33.6,26.7,08.2,-001.0,0024.26,0007.74,0005.76
2021-12-14 18:10:00,,0819.9,5.00,0.00,24.9,24.1,00.0,33.6,26.7,08.4,-001.7,0023.56,0007.70,0005.73
2021-12-14 18:11:00,,0820.0,4.99,0.00,24.9,24.2,00.0,33.6,26.7,08.4,-001.3,0023.19,0007.76,0005.71
2021-12-14 18:12:00,,0819.9,5.00,0.00,24.9,24.2,00.0,33.7,26.8,08.3,0000.3,0023.22,0007.73,0005.69
2021-12-14 18:13:00,,0819.9,4.99,0.00,24.9,24.2,00.0,33.7,26.8,08.2,0000.6,0023.20,0007.68,0005.65
2021-12-14 18:14:00,,0819.9,5.00,0.00,25.0,24.3,00.0,33.7,26.8,08.2,0000.1,0022.34,0007.62,0005.61
2021-12-14 18:15:00,,0819.8,4.99,0.00,25.0,24.3,00.0,33.8,26.9,08.2,0000.3,0021.95,0007.52,0005.57
2021-12-14 18:16:00,,0819.9,5.00,0.00,25.0,24.3,00.0,33.8,26.9,08.1,0001.0,0022.74,0007.45,0005.54
2021-12-14 18:17:00,,0819.9,5.00,0.00,25.1,24.4,00.0,33.8,26.9,08.1,0002.5,0023.45,0007.42,0005.49
2021-12-14 18:18:00,,0819.9,4.99,0.00,25.1,24.4,00.0,33.8,27.0,08.1,0003.2,0021.96,0007.34,0005.45
2021-12-14 18:19:00,,0819.8,5.02,0.00,25.1,24.5,00.0,33.9,27.0,08.1,0003.3,0021.85,0007.28,0005.41
2021-12-14 18:20:00,,0819.6,4.99,0.00,25.2,24.5,00.0,33.9,27.1,08.0,0002.3,0021.08,0007.24,0005.37
2021-12-14 18:21:00,,0819.6,5.00,0.00,25.2,24.6,00.0,33.9,27.1,08.0,0003.4,0020.78,0007.14,0005.33
2021-12-14 18:22:00,,0819.6,4.99,0.00,25.2,24.6,00.0,34.0,27.1,08.0,0003.1,0021.47,0007.02,0005.29
2021-12-14 18:23:00,,0819.6,5.00,0.00,25.3,24.7,00.0,34.0,27.2,08.0,0002.2,0021.62,0006.98,0005.26
2021-12-14 18:24:00,,0819.5,5.02,0.00,25.3,24.7,00.0,34.0,27.2,07.9,0002.2,0020.72,0006.93,0005.23
2021-12-14 18:25:00,,0819.5,5.00,0.00,25.3,24.7,00.0,34.1,27.2,07.9,0002.1,0020.75,0006.89,0005.22
2021-12-14 18:26:00,,0819.5,4.98,0.00,25.4,24.7,00.0,34.1,27.3,07.9,0001.7,0021.39,0006.91,0005.20
2021-12-14 18:27:00,,0819.6,5.01,0.00,25.4,24.8,00.0,34.1,27.3,07.8,0000.8,0020.96,0006.90,0005.18
2021-12-14 18:28:00,,0819.6,5.00,0.00,25.4,24.8,00.0,34.2,27.3,07.8,0001.2,0021.12,0006.91,0005.17
2021-12-14 18:29:00,,0819.5,4.99,0.00,25.5,24.8,00.0,34.2,27.4,07.8,0000.9,0021.58,0006.89,0005.14
2021-12-14 18:30:00,,0819.4,5.00,0.00,25.5,24.9,00.0,34.2,27.4,07.7,0000.5,0022.53,0006.84,0005.10
2021-12-14 18:31:00,,0819.4,4.99,0.00,25.5,24.9,00.0,34.3,27.4,07.7,0000.0,0022.22,0006.88,0005.07
2021-12-14 18:32:00,,0819.4,5.01,0.00,25.6,24.9,00.0,34.3,27.5,07.8,0000.0,0022.43,0006.87,0005.07
2021-12-14 18:33:00,,0819.3,4.98,0.00,25.6,24.9,00.0,34.3,27.5,07.8,0000.1,0022.02,0006.84,0005.05
2021-12-14 18:34:00,,0819.3,5.00,0.00,25.6,24.9,00.0,34.3,27.5,07.7,-000.2,0021.21,0006.76,0005.05
2021-12-14 18:35:00,,0819.3,4.99,0.00,25.6,25.0,00.0,34.4,27.5,07.8,0000.3,0021.42,0006.80,0005.05
2021-12-14 18:36:00,,0819.3,5.00,0.00,25.7,25.0,00.0,34.4,27.6,07.8,0000.8,0021.42,0006.88,0005.08
2021-12-14 18:37:00,,0819.3,5.01,0.00,25.7,25.0,00.0,34.4,27.6,07.8,-000.8,0021.11,0006.86,0005.09
2021-12-14 18:38:00,,0819.2,5.00,0.00,25.7,25.0,00.0,34.4,27.6,07.8,-000.9,0021.31,0006.90,0005.12
2021-12-14 18:39:00,,0819.3,4.98,0.00,25.7,25.1,00.0,34.5,27.6,07.8,-000.8,0020.41,0006.91,0005.15
2021-12-14 18:40:00,,0819.3,5.01,0.00,25.7,25.1,00.0,34.5,27.6,07.9,-000.7,0020.13,0006.94,0005.20
2021-12-14 18:41:00,,0819.4,4.99,0.00,25.7,25.1,00.0,34.5,27.7,07.9,-000.7,0019.37,0006.97,0005.27
2021-12-14 18:42:00,,0819.4,4.99,0.00,25.8,25.1,00.0,34.5,27.7,07.9,0000.0,0019.83,0006.99,0005.32
2021-12-14 18:43:00,,0819.4,4.99,0.00,25.8,25.1,00.0,34.6,27.7,07.9,0000.6,0019.88,0007.05,0005.36
2021-12-14 18:44:00,,0819.3,5.02,0.00,25.8,25.1,00.0,34.6,27.7,07.9,0002.8,0019.28,0007.13,0005.42
2021-12-14 18:45:00,,0819.2,4.99,0.00,25.8,25.1,00.0,34.6,27.7,07.8,0003.1,0019.31,0007.17,0005.46
2021-12-14 18:46:00,,0819.3,5.02,0.00,25.8,25.1,00.0,34.6,27.8,07.8,0002.2,0020.38,0007.15,0005.48
2021-12-14 18:47:00,,0819.2,4.99,0.00,25.9,25.1,00.0,34.7,27.8,07.8,0003.0,0020.94,0007.12,0005.49
2021-12-14 18:48:00,,0819.3,5.01,0.00,25.9,25.2,00.0,34.7,27.8,07.8,0002.6,0020.67,0007.13,0005.51
2021-12-14 18:49:00,,0819.3,4.98,0.00,25.9,25.2,00.0,34.7,27.8,07.8,0001.7,0019.90,0007.14,0005.53
2021-12-14 18:50:00,,0819.3,5.01,0.00,25.9,25.2,00.0,34.7,27.8,07.8,0001.5,0020.21,0007.07,0005.55
2021-12-14 18:51:00,,0819.0,4.99,0.00,25.9,25.2,00.0,34.7,27.8,07.8,0001.3,0019.77,0007.05,0005.54
2021-12-14 18:52:00,,0819.1,5.01,0.00,25.9,25.2,00.0,34.8,27.8,07.8,0001.2,0020.68,0007.05,0005.52
2021-12-14 18:53:00,,0819.1,5.00,0.00,26.0,25.2,00.0,34.8,27.8,07.9,0001.2,0022.22,0007.05,0005.51
2021-12-14 18:54:00,,0819.1,4.99,0.00,26.0,25.2,00.0,34.8,27.9,07.9,0001.1,0023.22,0007.08,0005.50
2021-12-14 18:55:00,,0819.1,5.01,0.00,26.0,25.2,00.0,34.8,27.9,07.9,-000.4,0023.58,0007.07,0005.49
2021-12-14 18:56:00,,0819.0,5.00,0.00,26.0,25.2,00.0,34.8,27.9,07.8,-000.7,0023.42,0007.09,0005.47
2021-12-14 18:57:00,,0819.0,4.99,0.00,26.0,25.3,00.0,34.8,27.9,07.8,-000.8,0023.09,0007.14,0005.48
2021-12-14 18:58:00,,0819.0,5.00,0.00,26.0,25.3,00.0,34.8,27.9,07.9,-000.7,0022.92,0007.19,0005.51
2021-12-14 18:59:00,,0819.0,5.01,0.00,26.0,25.3,00.0,34.9,27.9,07.9,-000.1,0023.50,0007.27,0005.53
